Location: Leeds
(37.2390°N, 113.3580°W)
Time: 07:30:13
(UTC-07:00)

ISS - All Passes

Search period start: 05 March 2015 00:00
Search period end: 15 March 2015 01:00
Orbit: 397 x 408 km, 51.6° (Epoch: 04 March)

Date Brightness Start Highest point End Pass type
(mag) Time Alt. Az. Time Alt. Az. Time Alt. Az.
05 Mar - 06:55:46 10° SSE 06:57:09 12° SE 06:58:40 10° E daylight
05 Mar - 08:30:08 10° WSW 08:33:17 53° NW 08:36:28 10° NE daylight
05 Mar - 10:09:17 10° NW 10:10:21 11° NNW 10:11:21 10° N daylight
05 Mar - 13:24:15 10° N 13:25:44 13° NNE 13:27:17 10° NE daylight
05 Mar - 14:59:27 10° NW 15:02:41 70° NE 15:05:55 10° SE daylight
06 Mar - 07:37:13 10° SW 07:40:25 70° SE 07:43:38 10° NE daylight
06 Mar - 09:15:03 10° WNW 09:17:10 16° NNW 09:19:15 10° NNE daylight
06 Mar - 14:06:44 10° NW 14:09:44 35° NNE 14:12:46 10° ESE daylight
06 Mar - 15:43:34 10° W 15:46:02 20° SW 15:48:27 10° S daylight
07 Mar - 06:44:42 10° SSW 06:47:36 31° SE 06:50:31 10° ENE daylight
07 Mar - 08:21:19 10° W 08:24:03 25° NNW 08:26:47 10° NNE daylight
07 Mar - 13:14:09 10° NNW 13:16:41 21° NNE 13:19:14 10° E daylight
07 Mar - 14:50:10 10° WNW 14:53:15 41° SW 14:56:18 10° SSE daylight
08 Mar - 06:52:52 10° SSE 06:54:48 15° SE 06:56:50 10° E visible
08 Mar - 08:27:53 10° WSW 08:31:00 44° NW 08:34:07 10° NE daylight
08 Mar - 10:07:39 10° NNW 10:08:08 10° NNW 10:08:33 10° N daylight
08 Mar - 13:21:44 10° N 13:23:30 14° NNE 13:25:19 10° ENE daylight
08 Mar - 14:57:07 10° NW 15:00:21 87° NE 15:03:36 10° SE daylight
09 Mar - 07:34:48 10° SW 07:38:01 88° SE 07:41:16 10° NE daylight
09 Mar - 09:12:58 10° WNW 09:14:52 14° NNW 09:16:42 10° NNE daylight
09 Mar - 14:04:17 10° NW 14:07:22 41° NE 14:10:27 10° ESE daylight
09 Mar - 15:41:26 10° W 15:43:35 16° SW 15:45:39 10° S daylight
10 Mar - 06:42:05 10° SSW 06:45:07 39° SE 06:48:09 10° ENE visible
10 Mar - 08:19:03 10° W 08:21:39 22° NNW 08:24:13 10° NNE daylight
10 Mar - 13:11:34 10° NNW 13:14:15 24° NNE 13:16:57 10° E daylight
10 Mar - 14:47:46 10° WNW 14:50:44 33° SW 14:53:41 10° SSE daylight
11 Mar - 05:49:55 10° S 05:52:14 19° SE 05:54:36 10° E visible
11 Mar - 07:25:27 10° WSW 07:28:29 37° NW 07:31:32 10° NE visible
11 Mar - 12:19:01 10° NNW 12:21:01 15° NNE 12:23:04 10° ENE daylight
11 Mar - 13:54:34 10° NW 13:57:48 76° SW 14:01:01 10° SE daylight
12 Mar - 06:32:11 10° SW 06:35:24 76° NW 06:38:39 10° NE visible
12 Mar - 08:10:41 10° NW 08:12:19 13° NNW 08:13:54 10° N daylight
12 Mar - 11:26:50 10° N 11:27:40 11° NNE 11:28:36 10° NE daylight
12 Mar - 13:01:36 10° NW 13:04:46 50° NE 13:07:54 10° ESE daylight
12 Mar - 14:39:11 10° W 14:40:54 13° SW 14:42:30 10° SSW daylight
13 Mar - 05:39:16 10° SSW 05:42:24 48° SE 05:45:32 10° ENE visible
13 Mar - 07:16:34 10° WNW 07:19:00 19° NNW 07:21:25 10° NNE visible
13 Mar - 12:08:46 10° NNW 12:11:35 27° NNE 12:14:24 10° E daylight
13 Mar - 13:45:10 10° WNW 13:47:59 27° SW 13:50:46 10° SSE daylight
14 Mar - 04:46:50 10° S 04:49:25 22° SE 04:52:03 10° ENE visible
14 Mar - 06:22:47 10° W 06:25:45 31° NNW 06:28:42 10° NNE visible
14 Mar - 11:16:05 10° NNW 11:18:18 17° NNE 11:20:33 10° ENE daylight
14 Mar - 12:51:48 10° NW 12:55:00 61° SW 12:58:10 10° SE daylight
